User: anonymous   Login
Location: Albany
(35.0000°S, 118.0000°E)
Time: 14:44:13
(UTC-05:00)
Language:

Centaur D-1AR AC-48 - Orbit

View from above orbital plane
View from above orbital plane
View from above satellite
View from above satellite

Ground track
Ground track

The orbit data is extracted from the following two-line orbital elements,

1 10779U 78035B   17345.24639225 -.00000050 +00000-0 +10381-2 0  9991
2 10779 021.9067 007.5801 7178447 123.2345 354.5487 02.22651958322586
Epoch (UTC): 11 December 2017 05:54:48
Eccentricity: 0.7178447
inclination: 21.9067°
perigee height: 612 km
apogee height: 36178 km
right ascension of ascending node: 7.5801°
argument of perigee: 123.2345°
revolutions per day: 2.22651958
mean anomaly at epoch: 354.5487°
orbit number at epoch: 32258

The dashed part of the orbit path shows where the satellite is in the earth's shadow,  

DLR